Regional Weather Roundup
Issued by NWS

Home | Current Version | Previous Version | Text Only | Print | Product List | Glossary On
Versions: 1 2 3 4 5 6 7 8 9 10 11 12 13 14 15 16 17 18 19 20 21 22 23 24 25 26 27 28 29 30 31 32 33 34 35 36 37 38 39 40 41 42 43 44 45 46 47 48 49 50
002
ASUS46 KPQR 241410
RWROR

OREGON REGIONAL WEATHER ROUNDUP
NATIONAL WEATHER SERVICE PORTLAND OR
700 AM PDT TUE MAY 24 2016

NOTE: "FAIR" INDICATES FEW OR NO CLOUDS BELOW 12,000 FEET WITH
NO SIGNIFICANT WEATHER AND/OR OBSTRUCTIONS TO VISIBILITY.

ORZ001>013-241500-
NORTHWEST OREGON


CITY           SKY/WX    TMP DP  RH WIND       PRES   REMARKS
ASTORIA        CLOUDY    54  52  93 CALM      29.97S
NEWPORT        FOG       48  48 100 E6        30.01R VSB 3/4
PORTLAND       PTSUNNY   56  49  77 NW5       29.96S
VANCOUVER WA   CLOUDY    55  49  80 NW3       29.96R
SCAPPOOSE      CLOUDY    54  48  80 N5        29.96R
HILLSBORO      CLOUDY    52  48  86 CALM      29.96R
AURORA         MOSUNNY   52  50  93 CALM      29.97R
MCMINNVILLE    CLOUDY    52  49  89 CALM      29.97S
SALEM          CLOUDY    54  49  83 CALM      29.96R
CORVALLIS        N/A     48  46  93 W6        29.98S
EUGENE         CLOUDY    52  49  89 CALM      29.97S
$$

ORZ021-028-241500-
SOUTHWEST OREGON


CITY           SKY/WX    TMP DP  RH WIND       PRES   REMARKS
NORTH BEND     MOSUNNY   50  50 100 NE5       29.99R
BROOKINGS      FOG       49  48  97 CALM        N/A  VSB 3/4
ROSEBURG       CLOUDY    51  48  89 CALM      29.96S
SEXTON SUMMIT  FOG       43  42  97 SE3       29.93S VSB 1
MEDFORD        CLOUDY    49  44  83 NE5       29.95R
$$

ORZ014>016-041-241500-
COLUMBIA GORGE


CITY           SKY/WX    TMP DP  RH WIND       PRES   REMARKS
TROUTDALE      CLOUDY    57  49  74 VRB3      29.96R
THE DALLES     SUNNY     59  48  67 W10       29.89S
$$

ORZ029>031-041-044-049-050-061>064-502-503-505>511-241500-
EASTERN OREGON


CITY           SKY/WX    TMP DP  RH WIND       PRES   REMARKS
REDMOND        MOSUNNY   45  40  82 S5        29.94R
BEND           MOSUNNY   45  39  81 SW7       29.94R
PRINEVILLE     MOSUNNY   45  41  87 CALM      29.94S
KLAMATH FALLS  SUNNY     40  38  93 CALM      29.93S
LAKEVIEW       SUNNY     39  37  93 N9        29.94S WCI  33
HERMISTON      MOSUNNY   50  44  80 CALM      29.89R
PENDLETON      MOSUNNY   50  42  74 S6        29.90R
JOHN DAY       SUNNY     43  37  80 E7        29.94S
MEACHAM        MOSUNNY   39  35  86 CALM      29.92R
LA GRANDE      PTSUNNY   46  36  66 CALM      29.91S
BAKER CITY     MOSUNNY   42  39  89 CALM      29.92S
BURNS          CLOUDY    43  38  82 W3        29.92R
ROME             N/A     47  41  80 W3        29.88S
ONTARIO        MOSUNNY   52  41  66 W7        29.88R
$$




USA.gov is the U.S. government's official web portal to all federal, state and local government web resources and services.